VOI247 MMMY-MMMX

Flight info

Callsign VOI247
Flight time 1h 2m
Altitude 31000
Route KERGA1A KERGA UT132 DARAN DARAN3A
Aircraft A320/M-SDE3FGHIRWY/LB1

Departure

Time 2026-05-04 05:12
Airport Monterrey International Airport (MMMY)

Arrival

Time 2026-05-04 06:14
Airport Mexico City Benito Juárez International Airport (MMMX)
Time Latitude Longitude Altitude Speed Heading
2026-05-04 05:06 25.77885 -100.11326 1340 ft 0 kts 213°
2026-05-04 05:06 25.77894 -100.11319 1328 ft 2 kts 211°
2026-05-04 05:07 25.77908 -100.11309 1333 ft 2 kts 217°
2026-05-04 05:07 25.77921 -100.11298 1330 ft 2 kts 219°
2026-05-04 05:07 25.77933 -100.11286 1335 ft 2 kts 229°
2026-05-04 05:09 25.78001 -100.11368 1331 ft 11 kts 300°
2026-05-04 05:09 25.78028 -100.11420 1331 ft 12 kts 300°
2026-05-04 05:10 25.78077 -100.11508 1331 ft 14 kts 302°
2026-05-04 05:10 25.78132 -100.11607 1331 ft 16 kts 301°
2026-05-04 05:10 25.78192 -100.11717 1331 ft 17 kts 301°
2026-05-04 05:10 25.78254 -100.11806 1331 ft 10 kts 358°
2026-05-04 05:11 25.78323 -100.11768 1331 ft 12 kts 29°
2026-05-04 05:11 25.78396 -100.11712 1331 ft 13 kts 63°
2026-05-04 05:11 25.78342 -100.11588 1331 ft 39 kts 121°
2026-05-04 05:11 25.78083 -100.11117 1331 ft 101 kts 121°
2026-05-04 05:12 25.77631 -100.10290 1331 ft 147 kts 121°
2026-05-04 05:12 25.77080 -100.09263 1779 ft 156 kts 120°
2026-05-04 05:12 25.76519 -100.08239 2478 ft 155 kts 121°
2026-05-04 05:12 25.75958 -100.07222 3142 ft 155 kts 122°
2026-05-04 05:13 25.75369 -100.06159 3479 ft 172 kts 122°
2026-05-04 05:13 25.74700 -100.04951 3696 ft 196 kts 122°
2026-05-04 05:13 25.73949 -100.03596 3998 ft 220 kts 122°
2026-05-04 05:13 25.73104 -100.02067 4387 ft 244 kts 123°
2026-05-04 05:14 25.72192 -100.00416 5066 ft 255 kts 123°
2026-05-04 05:14 25.71178 -99.98778 5845 ft 261 kts 137°
2026-05-04 05:14 25.69611 -99.97778 6575 ft 265 kts 167°
2026-05-04 05:14 25.67759 -99.97661 7279 ft 270 kts 182°
2026-05-04 05:15 25.65862 -99.97733 8001 ft 275 kts 182°
2026-05-04 05:15 25.63929 -99.97800 8700 ft 280 kts 183°
2026-05-04 05:15 25.61961 -99.97860 9389 ft 286 kts 183°
2026-05-04 05:15 25.59946 -99.97916 10031 ft 292 kts 183°
2026-05-04 05:16 25.57892 -99.97972 10595 ft 299 kts 184°
2026-05-04 05:16 25.55730 -99.98031 10768 ft 322 kts 184°
2026-05-04 05:16 25.53417 -99.98094 10972 ft 340 kts 184°
2026-05-04 05:16 25.51025 -99.98154 11452 ft 347 kts 184°
2026-05-04 05:17 25.48625 -99.98209 11986 ft 352 kts 185°
2026-05-04 05:17 25.46160 -99.98265 12535 ft 357 kts 185°
2026-05-04 05:17 25.43663 -99.98323 13079 ft 361 kts 186°
2026-05-04 05:17 25.41136 -99.98386 13631 ft 365 kts 186°
2026-05-04 05:18 25.38583 -99.98450 14130 ft 370 kts 187°
2026-05-04 05:18 25.35993 -99.98515 14613 ft 373 kts 187°
2026-05-04 05:18 25.33384 -99.98599 15100 ft 376 kts 187°
2026-05-04 05:18 25.30756 -99.98715 15603 ft 379 kts 188°
2026-05-04 05:19 25.28109 -99.98852 16066 ft 383 kts 188°
2026-05-04 05:19 25.25433 -99.98996 16551 ft 387 kts 188°
2026-05-04 05:19 25.22738 -99.99137 17054 ft 390 kts 187°
2026-05-04 05:19 25.20014 -99.99270 17556 ft 393 kts 187°
2026-05-04 05:20 25.17267 -99.99398 18069 ft 396 kts 187°
2026-05-04 05:20 25.14505 -99.99527 18514 ft 399 kts 187°
2026-05-04 05:20 25.11715 -99.99659 19063 ft 402 kts 187°
2026-05-04 05:20 25.08914 -99.99790 19601 ft 403 kts 187°
2026-05-04 05:21 25.06142 -99.99919 20089 ft 404 kts 187°
2026-05-04 05:21 25.03321 -100.00051 20587 ft 406 kts 187°
2026-05-04 05:21 25.00495 -100.00182 21041 ft 407 kts 188°
2026-05-04 05:21 24.97654 -100.00311 21471 ft 409 kts 187°
2026-05-04 05:22 24.94800 -100.00435 21935 ft 412 kts 185°
2026-05-04 05:22 24.91912 -100.00321 22364 ft 417 kts 182°
2026-05-04 05:22 24.89008 -100.00157 22824 ft 419 kts 182°
2026-05-04 05:22 24.86092 -99.99989 23273 ft 420 kts 182°
2026-05-04 05:23 24.83166 -99.99817 23598 ft 422 kts 182°
2026-05-04 05:23 24.80232 -99.99645 23893 ft 423 kts 182°
2026-05-04 05:23 24.77281 -99.99475 24138 ft 427 kts 182°
2026-05-04 05:23 24.74307 -99.99303 24474 ft 429 kts 182°
2026-05-04 05:24 24.71315 -99.99131 24769 ft 432 kts 182°
2026-05-04 05:24 24.68306 -99.98962 25090 ft 434 kts 182°
2026-05-04 05:24 24.65278 -99.98794 25416 ft 436 kts 182°
2026-05-04 05:24 24.62237 -99.98624 25748 ft 439 kts 182°
2026-05-04 05:25 24.59176 -99.98451 26062 ft 441 kts 182°
2026-05-04 05:25 24.56102 -99.98272 26367 ft 444 kts 182°
2026-05-04 05:25 24.53003 -99.98092 26680 ft 447 kts 182°
2026-05-04 05:25 24.49890 -99.97912 26996 ft 450 kts 182°
2026-05-04 05:26 24.46755 -99.97731 27301 ft 452 kts 182°
2026-05-04 05:26 24.43600 -99.97552 27586 ft 455 kts 182°
2026-05-04 05:26 24.40432 -99.97372 27892 ft 457 kts 182°
2026-05-04 05:26 24.37242 -99.97192 28193 ft 460 kts 182°
2026-05-04 05:27 24.34073 -99.97015 28492 ft 463 kts 182°
2026-05-04 05:28 24.11099 -99.95722 30556 ft 481 kts 182°
2026-05-04 05:29 24.07746 -99.95529 30846 ft 482 kts 182°
2026-05-04 05:29 24.04387 -99.95335 31056 ft 483 kts 182°
2026-05-04 05:29 23.97802 -99.94954 31124 ft 465 kts 182°
2026-05-04 05:31 23.72108 -99.93512 31126 ft 462 kts 182°
2026-05-04 05:32 23.65727 -99.93159 31128 ft 463 kts 182°
2026-05-04 05:33 23.56070 -99.92620 31132 ft 464 kts 182°
2026-05-04 05:33 23.49615 -99.92259 31148 ft 464 kts 182°
2026-05-04 05:34 23.43161 -99.91900 31145 ft 464 kts 182°
2026-05-04 05:34 23.36706 -99.91538 31148 ft 464 kts 181°
2026-05-04 05:35 23.30260 -99.91172 31146 ft 464 kts 182°
2026-05-04 05:35 23.23805 -99.90814 31153 ft 465 kts 182°
2026-05-04 05:36 23.17346 -99.90459 31159 ft 465 kts 182°
2026-05-04 05:36 23.10925 -99.90101 31148 ft 465 kts 181°
2026-05-04 05:37 23.04468 -99.89738 31139 ft 465 kts 182°
2026-05-04 05:37 22.97977 -99.89374 31146 ft 466 kts 181°
2026-05-04 05:38 22.88250 -99.88833 31148 ft 467 kts 181°
2026-05-04 05:38 22.81763 -99.88474 31150 ft 467 kts 181°
2026-05-04 05:39 22.72016 -99.87932 31133 ft 468 kts 181°
2026-05-04 05:40 22.62277 -99.87395 31132 ft 470 kts 181°
2026-05-04 05:40 22.55751 -99.87036 31136 ft 470 kts 181°
2026-05-04 05:41 22.49197 -99.86673 31139 ft 470 kts 181°
2026-05-04 05:41 22.42660 -99.86313 31135 ft 470 kts 181°
2026-05-04 05:42 22.36114 -99.85954 31142 ft 471 kts 181°
2026-05-04 05:42 22.29573 -99.85596 31148 ft 471 kts 181°
2026-05-04 05:43 22.23070 -99.85235 31154 ft 471 kts 181°
2026-05-04 05:45 21.96877 -99.83808 31167 ft 470 kts 180°
2026-05-04 05:47 21.70778 -99.82378 31168 ft 470 kts 180°
2026-05-04 05:47 21.64252 -99.82019 31170 ft 469 kts 180°
2026-05-04 05:48 21.57732 -99.81661 31172 ft 469 kts 180°
2026-05-04 05:48 21.51208 -99.81308 31173 ft 469 kts 180°
2026-05-04 05:49 21.44687 -99.80955 31168 ft 469 kts 180°
2026-05-04 05:49 21.38156 -99.80599 31167 ft 469 kts 180°
2026-05-04 05:51 21.12114 -99.79189 31166 ft 469 kts 180°
2026-05-04 05:52 21.05584 -99.78834 31170 ft 469 kts 180°
2026-05-04 05:52 20.99055 -99.78519 31173 ft 469 kts 181°
2026-05-04 05:53 20.95805 -99.78407 31025 ft 463 kts 181°
2026-05-04 05:54 20.74130 -99.77724 29275 ft 437 kts 180°
2026-05-04 05:55 20.71101 -99.77619 29015 ft 435 kts 180°
2026-05-04 05:55 20.68081 -99.77516 28757 ft 432 kts 181°
2026-05-04 05:55 20.65085 -99.77417 28503 ft 430 kts 180°
2026-05-04 05:55 20.62099 -99.77318 28249 ft 428 kts 180°
2026-05-04 05:56 20.59133 -99.77217 28000 ft 426 kts 180°
2026-05-04 05:56 20.56180 -99.77116 27752 ft 423 kts 180°
2026-05-04 05:56 20.53244 -99.77016 27507 ft 421 kts 180°
2026-05-04 05:56 20.50324 -99.76914 27260 ft 420 kts 180°
2026-05-04 05:57 20.47410 -99.76811 27027 ft 417 kts 180°
2026-05-04 05:57 20.44530 -99.76708 26722 ft 414 kts 180°
2026-05-04 05:57 20.41654 -99.76608 26309 ft 412 kts 180°
2026-05-04 05:57 20.38797 -99.76513 25905 ft 410 kts 180°
2026-05-04 05:58 20.35941 -99.76419 25486 ft 409 kts 180°
2026-05-04 05:58 20.34060 -99.76356 25211 ft 408 kts 180°
2026-05-04 05:58 20.31226 -99.76261 24776 ft 407 kts 180°
2026-05-04 05:58 20.27480 -99.76133 24208 ft 406 kts 180°
2026-05-04 05:59 20.24660 -99.76037 23766 ft 405 kts 180°
2026-05-04 05:59 20.22758 -99.75972 23423 ft 404 kts 180°
2026-05-04 05:59 20.19964 -99.75713 22978 ft 403 kts 171°
2026-05-04 05:59 20.17260 -99.75178 22543 ft 400 kts 171°
2026-05-04 06:00 20.14530 -99.74633 22108 ft 397 kts 170°
2026-05-04 06:00 20.11832 -99.74093 21669 ft 393 kts 170°
2026-05-04 06:00 20.09148 -99.73556 21245 ft 390 kts 170°
2026-05-04 06:00 20.06495 -99.73024 20829 ft 387 kts 170°
2026-05-04 06:01 20.03859 -99.72489 20423 ft 383 kts 168°
2026-05-04 06:01 20.01386 -99.71526 20185 ft 376 kts 151°
2026-05-04 06:03 19.88633 -99.58809 18607 ft 351 kts 136°
2026-05-04 06:03 19.86882 -99.57013 18365 ft 348 kts 136°
2026-05-04 06:05 19.74952 -99.44664 16471 ft 335 kts 136°
2026-05-04 06:05 19.71607 -99.41210 15664 ft 336 kts 136°
2026-05-04 06:05 19.69933 -99.39485 15260 ft 336 kts 136°
2026-05-04 06:06 19.68253 -99.37753 14846 ft 336 kts 136°
2026-05-04 06:06 19.66578 -99.36022 14444 ft 337 kts 136°
2026-05-04 06:06 19.64925 -99.34313 14192 ft 333 kts 136°
2026-05-04 06:06 19.63294 -99.32629 14095 ft 323 kts 136°
2026-05-04 06:07 19.61702 -99.30991 13981 ft 315 kts 136°
2026-05-04 06:07 19.60148 -99.29396 13859 ft 307 kts 137°
2026-05-04 06:07 19.58486 -99.28013 13588 ft 304 kts 144°
2026-05-04 06:07 19.56779 -99.26683 13241 ft 305 kts 144°
2026-05-04 06:08 19.55069 -99.25352 12917 ft 305 kts 144°
2026-05-04 06:08 19.53296 -99.24130 12576 ft 304 kts 156°
2026-05-04 06:08 19.51288 -99.23538 12419 ft 295 kts 176°
2026-05-04 06:08 19.49286 -99.23474 12428 ft 282 kts 179°
2026-05-04 06:09 19.47355 -99.23437 12302 ft 273 kts 179°
2026-05-04 06:09 19.45446 -99.23398 11700 ft 276 kts 179°
2026-05-04 06:11 19.37776 -99.17365 9362 ft 204 kts 60°
2026-05-04 06:11 19.38482 -99.16109 9149 ft 194 kts 59°
2026-05-04 06:13 19.42697 -99.08588 7335 ft 160 kts 60°
2026-05-04 06:14 19.43327 -99.07787 7303 ft 11 kts 269°
2026-05-04 06:14 19.43325 -99.07872 7303 ft 12 kts 268°
2026-05-04 06:15 19.43324 -99.07966 7303 ft 13 kts 271°
2026-05-04 06:15 19.43346 -99.08056 7303 ft 14 kts 307°
2026-05-04 06:15 19.43406 -99.08127 7303 ft 13 kts 262°
2026-05-04 06:15 19.43361 -99.08212 7303 ft 14 kts 239°
2026-05-04 06:16 19.43310 -99.08302 7303 ft 15 kts 239°
2026-05-04 06:16 19.43256 -99.08398 7303 ft 16 kts 239°
2026-05-04 06:16 19.43198 -99.08502 7303 ft 17 kts 240°
2026-05-04 06:16 19.43137 -99.08612 7303 ft 18 kts 239°
2026-05-04 06:17 19.43144 -99.08725 7303 ft 15 kts 297°
2026-05-04 06:17 19.43209 -99.08757 7303 ft 9 kts 52°
2026-05-04 06:17 19.43220 -99.08738 7303 ft 0 kts 70°
2026-05-04 06:17 19.43221 -99.08737 7303 ft 0 kts 67°